Location: Shawneetown
(37.5512°N, 89.6520°W)
Time: 03:58:30
(UTC+00:00)

Daily predictions for brighter satellites

Satellite Brightness Start Highest point End
(mag) Time Altitude Azimuth Time Altitude Azimuth Time Altitude Azimuth
ISS -1.8 00:00:10 10° NNW 00:02:04 17° NNE 00:02:04 17° NNE
Cosmos 2082 Rocket 2.5 00:00:18 10° SSW 00:05:58 70° WNW 00:11:38 10° NNE
SL-16 R/B 3.9 00:03:21 10° NNE 00:05:04 15° NNE 00:05:04 15° NNE
ATLAS 5 CENTAUR R/B 4.1 00:05:54 10° NNW 00:08:17 13° NNE 00:08:17 13° NNE
CZ-2D R/B 3.9 00:06:00 10° S 00:09:46 58° W 00:13:34 10° NNW
Cosmos 372 Rocket 3.9 00:07:32 10° NNW 00:12:48 75° ENE 00:18:01 10° SSE
Cosmos 1666 Rocket 3.4 00:10:32 10° N 00:14:59 77° E 00:19:22 10° S
Cosmos 1328 Rocket 3.4 00:11:25 10° S 00:15:50 74° E 00:19:19 16° NNE
CZ-4 R/B 4.3 00:13:23 10° SSE 00:17:27 65° ENE 00:21:33 10° N
CZ-2C R/B 2.5 00:15:20 10° SW 00:18:54 27° SSE 00:19:38 25° SE
Meteor 1-27 Rocket 4.5 00:15:09 10° SSE 00:19:10 30° ESE 00:19:10 30° ESE
TRACE 4.5 00:19:47 36° NNE 00:21:15 82° ESE 00:24:57 10° S
Cosmos 2278 3.7 00:15:44 10° NNW 00:21:21 56° ENE 00:26:54 10° SE
ARGOS 3.0 00:21:11 10° SSE 00:26:36 85° ENE 00:32:02 10° NNW
SKYMED 2 4.2 00:23:14 10° N 00:27:29 54° WNW 00:31:42 10° SSW
Landsat 5 3.5 00:26:39 22° N 00:29:11 74° WNW 00:33:07 10° SSW
IRAS Rocket 4.5 00:28:34 42° E 00:29:11 43° E 00:34:25 10° S
COSMOS 2455 4.1 00:25:40 10° WSW 00:31:13 38° NW 00:36:35 11° NNE
SL-08 RB Rocket 3.6 00:28:27 10° SSE 00:33:04 70° ENE 00:37:40 10° N
Meteor 2-15 4.3 00:29:14 10° S 00:35:20 83° E 00:41:28 10° N
Meteor 2-6 Rocket 4.4 00:30:32 10° SSW 00:36:20 76° W 00:42:01 10° N
Cosmos 1655 Rocket 3.9 00:33:29 10° N 00:39:50 64° E 00:46:07 10° SSE
NOAA 15 4.5 00:36:13 10° SSE 00:41:25 62° ENE 00:46:38 10° N
DMSP B5D2-2 3.9 00:40:33 52° NE 00:41:43 68° ESE 00:46:55 10° S
USA 234 3.7 00:37:28 10° SSE 00:43:55 60° SW 00:50:23 10° NW
CZ-4B R/B 4.0 00:39:50 10° S 00:45:08 52° W 00:50:22 10° NNW
GEOS 3 Rocket 4.4 00:46:40 36° NNE 00:46:40 36° NNE 00:50:16 10° NNW
H-2A R/B 4.3 00:49:34 15° SSE 00:49:34 15° SSE 00:50:27 10° S
GPS 2-04 Rocket1 3.3 00:43:13 10° W 00:47:01 51° SSW 00:47:01 51° SSW
CZ-4C R/B 4.4 00:51:56 35° WSW 00:51:56 35° WSW 00:54:21 10° SW
CZ-2C R/B 4.0 00:47:41 10° N 00:52:23 36° WNW 00:57:03 10° SW
Meteor 1-10 Rocket 4.4 00:49:41 10° SSW 00:55:29 72° W 00:59:16 22° N
Cosmos 1666 4.4 00:52:28 10° NNW 00:55:47 31° W 00:59:05 10° SSW
Cosmos 1515 Rocket 3.8 00:52:44 10° SSW 00:56:51 67° WSW 00:56:51 67° WSW
Cosmos 1867 4.5 01:07:16 10° SSW 01:10:39 38° S 01:10:39 38° S
CZ-4C R/B 3.1 01:09:28 10° NW 01:17:08 81° WSW 01:21:47 31° SSE
Okean O Rocket 4.4 01:30:41 10° SW 01:33:30 16° W 01:36:19 10° NW
SL-16 R/B 4.4 01:45:57 10° NNW 01:46:59 16° NNW 01:46:59 16° NNW
ATLAS 3B CENTAUR R/B 4.4 01:42:05 10° WSW 02:00:35 58° S 02:02:42 55° SSE
Cosmos 2369 Rocket 3.1 10:05:54 38° SE 10:07:07 44° ESE 10:12:24 10° NE
Cosmos 1943 Rocket 3.9 10:35:16 20° N 10:35:16 20° N 10:36:58 10° N
CZ-2C R/B 4.2 10:28:47 10° SE 10:33:40 34° ENE 10:38:29 10° N
CENTAUR R/B 3.5 10:38:46 31° N 10:38:46 31° N 10:43:07 10° NNE
Envisat 3.7 10:36:57 10° NNE 10:41:55 52° E 10:46:51 10° S
Cosmos 2098 Rocket 3.8 10:40:39 10° SSE 10:44:12 48° E 10:48:38 10° NNE
Cosmos 2082 Rocket 4.4 10:50:13 11° SSW 10:50:13 11° SSW 10:50:21 10° SSW
DELTA 2 R/B (1) 3.5 10:47:14 65° SW 10:48:02 80° SSE 10:53:35 10° ENE
Cosmos 2034 Rocket 4.3 10:51:34 46° WSW 10:51:34 46° WSW 10:56:42 10° SSW
Genesis I 3.4 10:52:06 70° ENE 10:52:06 70° ENE 10:56:01 10° SE
OAO 3 Rocket 4.5 10:55:21 28° SSW 10:55:21 28° SSW 10:59:33 10° SE
NOSS 3-2 (C) 4.1 11:00:56 32° NNW 11:00:56 32° NNW 11:05:40 10° NNE
Cosmos 1812 2.9 11:03:50 34° N 11:05:22 69° E 11:09:11 10° SSE
ATLAS 3B R/B 4.5 11:00:02 10° S 11:05:31 30° ESE 11:11:11 10° NE
MOS 1-B Rocket 3.9 10:59:52 10° SSE 11:06:25 85° WSW 11:12:14 10° NNW
SJ 16-02 3.9 11:05:07 10° SSE 11:08:32 23° E 11:11:57 10° NE
Cosmos 1634 Rocket 3.9 11:05:36 10° N 11:11:51 74° W 11:18:01 10° S
ADEOS 4.3 11:11:01 10° NNE 11:16:09 55° E 11:21:15 10° S
CZ-4B R/B 4.0 11:12:34 10° N 11:17:04 85° W 11:21:31 10° SSW
Landsat 5 4.1 11:12:43 10° SSE 11:17:09 62° ENE 11:21:35 10° N
Tsikada Rocket 4.4 11:11:35 10° SW 11:17:11 36° WNW 11:22:55 10° N
Meteor 2-6 Rocket 4.3 11:13:16 10° N 11:18:41 71° E 11:24:02 10° SSE
CZ-4C R/B 4.3 11:16:28 10° SE 11:19:22 35° ENE 11:22:16 10° N
ATLAS 5 CENTAUR R/B 3.0 11:16:17 10° S 11:19:39 33° ESE 11:23:14 10° NE
SKYMED 2 3.5 11:15:46 10° SSE 11:20:06 90° NNE 11:24:07 12° NNW
Meteor 1-31 Rocket 2.7 11:24:17 10° N 11:28:08 62° WNW 11:32:00 10° SSW
CZ-2C R/B 4.1 11:24:01 10° NNE 11:28:46 47° E 11:33:44 10° S
Centaur D-1A AC-35 4.5 11:29:16 10° SW 11:31:57 16° S 11:34:21 10° SE
USA 215 3.8 11:25:53 10° ESE 11:32:11 53° NE 11:37:55 13° NW
Cosmos 1782 3.9 11:33:13 25° WSW 11:33:13 25° WSW 11:35:41 10° SSW
Cosmos 921 Rocket 3.3 11:30:39 28° NW 11:32:30 45° W 11:36:46 10° S
H-2A R/B 3.3 11:32:12 10° N 11:35:34 33° WNW 11:38:57 10° SW
Cosmos 1862 3.5 11:33:25 10° SSW 11:37:10 43° W 11:40:58 10° N
H-2A R/B 4.0 11:34:11 10° SE 11:37:49 29° ENE 11:41:32 10° N
Cosmos 836 Rocket 4.4 11:33:20 12° NNW 11:38:05 68° WSW 11:43:14 10° S
Meteor 1-10 Rocket 4.3 11:34:02 10° N 11:39:36 78° E 11:45:08 10° SSE
Okean 3 Rocket 3.8 11:36:41 10° SSW 11:41:03 48° W 11:45:28 10° N
Cosmos 2180 Rocket 4.4 11:37:04 10° N 11:43:15 88° W 11:49:22 10° S
Cosmos 1151 Rocket 3.4 11:42:46 11° NNW 11:46:44 42° W 11:50:50 10° SSW
Cosmos 1503 Rocket 4.2 11:43:24 10° SW 11:48:26 47° WNW 11:53:35 10° N
Meteor 2-8 Rocket 4.4 11:43:22 10° N 11:49:30 76° W 11:55:35 10° S
Cosmos 1766 Rocket 4.2 11:46:03 10° SW 11:49:57 32° WNW 11:53:52 10° NNW
Cosmos 2369 Rocket 3.2 11:47:55 14° WSW 11:51:18 24° WNW 11:55:48 10° N
BREEZE-M DEB (TANK) 4.1 11:37:03 14° NW 11:51:37 63° SW 11:56:26 10° SSE
SL-27 R/B 3.6 11:51:57 10° N 11:55:23 44° ENE 11:58:46 10° SE
